Volver al catálogo

FENGYUN 1C DEB

ActivoPO
NORAD 30886·DEBRIS·🇨🇳 China

Lanzado May 10, 1999 desde Taiyuan Satellite Launch Center

Loading…

Próximos Pases (próximas 24 horas)

TLE

ActualizadoSource: Space-Track

Época: Sep 13, 2026, 22:44 UTC

1 30886U 99025AXY 26256.94725174  .00001952  00000-0  86006-3 0  9990
2 30886  99.1948 167.5759 0035218 333.7563  26.1828 14.24334835  3081

Sigue FENGYUN 1C DEB en tiempo real con AllMySat

Download on the App Store